Location: Wald
(31.7579°N, 86.6655°W)
Time: 00:55:50
(UTC+00:00)

Cosmos 1315 Rocket - Pass Details

Date: 14 July 2020
Orbit: 530 x 568 km, 81.2° (Epoch: 12 August)

Event Time Altitude Azimuth Distance (km) Brightness Sun altitude
Rises 02:35:09 0° 353° (N) 2,767 7.2 -18.7°
Reaches altitude 10° 02:37:21 10° 354° (N) 1,868 6.2 -19.1°
Maximum altitude 02:41:29 81° 82° (E) 578 2.7 -19.7°
Enters shadow 02:42:29 50° 161° (SSE) 721 3.0 -19.9°
